Погода в Майкопе

Погода в Майкопе : погода сейчас, прогноз погоды и архив. Всё, что Вы хотите узнать о погоде в Майкопе!

Поиск расширенной информации на нашем сайте:

Другие новости

Новости СМИ2

Главная страница сайта

Новости сайта

03.07.2017

Напоминаем, что на нашем специализированном сайте Метеоцентр.Азия вы можете получить высокодетализированные автоматические прогнозы погоды по пунктам России, СНГ и мира в авиационном формате (включающие направление и скорость ветра, видимость, явления погоды, количество и форму облачности, нижнюю и верхнюю границу облачности).


Погода в Майкопе - сегодня

Время (UTC), дата Ветер
(°,м/с) 
Видим.   Явления Облачность Т
(°С)
Тd
(°С)
f(%) Тe
(°С)
Pmin
(гПа)
dP
(гПа)
Po
(мм)
O2
(г/м3)
Тmin Tmax R s Состояние
почвы
15 20.06.18 040 (СВ) 20000 м    ясно 
+31.1 +4.1 18 +31  1012.6  -0.8  741  267    +32.2       
18 20.06.18 080 (В) 20000 м    ясно 
+19.5 +9.5 52 +22  1014.1  0.6  742  277           
21 20.06.18 150 (ЮВ) 20000 м    ясно 
+19.3 +12.5 65 +25  1014.9  0.7  742  277           
00 21.06.18 290 (З) 20000 м    ясно 
+16.7 +11.7 72 +22  1015.2  0.1  742  280           
06 21.06.18 180 (Ю) 20000 м    ясно 
+25.2 +11.7 43 +29  1015.1  0.4  743  272           
09 21.06.18 010 (С) 20000 м    ясно 
+31.6 +10.2 27 +33  1013.3  -1.3  742  266           
12 21.06.18 040 (СВ) 20000 м    ясно 
+33.8 +5.4 17 +34  1011.6  -1.5  741  265           
15 21.06.18 040 (СВ) 20000 м    ясно 
+32.8 +5.4 18 +33  1010.8  -0.9  740  265    +34       
18 21.06.18 120 (ЮВ) 20000 м    ясно 
+22.8 +11.2 48 +26  1012.1  0.5  740  273           
21 21.06.18 150 (ЮВ) 20000 м    ясно 
+20.6 +13.5 64 +27  1011.7  -0.5  740  275           
00 22.06.18 240 (ЮЗ) 20000 м    ясно 
+18.4 +12.3 68 +25  1011.2  -0.7  739  277           
06 22.06.18 тихо ()   20000 м    ясно 
+27.2 +12.4 40 +32  1009.7  -0.4  739  268           
09 22.06.18 100 (В) 20000 м    4/0 верхняя 
[Ci sp]
+33.8 +10.3 24 +36  1008.2  -1  738  263           
12 22.06.18 070 (В) 20000 м    8/3 1000 м верхняя 
[Cu hum|Ci sp]
+35 +7.3 18 +35  1006.1  -1.9  737  262           
18 22.06.18 180 (Ю) 20000 м    9/4 1000 м средняя, верхняя 
[Sc|Ac trans|Ci sp]
+25.8 +19.1 67 +43  1007.2  737  267           
21 22.06.18 180 (Ю) 20000 м    6/0 верхняя 
[Ci sp]
+23.5 +17.7 70 +38  1007.4  0.1  737  269           
00 23.06.18 170 (Ю) 20000 м    10/3 1000 м средняя 
[Sc|Ac As]
+21.4 +17.1 76 +34  1007.7  737  272           
03 23.06.18 130 (ЮВ) 20000 м    10/5 1000 м средняя, верхняя 
[Sc|Ac trans|Ci sp]
+21.2 +17.3 78 +35  1008  0.7  737  272  +20.4        сухая 
06 23.06.18 260 (З) 20000 м    10/3 1000 м средняя, верхняя 
[Sc|Ac trans|Ci sp]
+26.3 +16.1 53 +37  1008.5  0.5  738  268           
09 23.06.18 240 (ЮЗ) 20000 м    10/5 1000 м средняя, верхняя 
[Cu med, cong|Ac trans|Ci sp]
+25.1 +18 65 +40  1008.8  0.2  738  268           
21 23.06.18 тихо ()   10 км  в посл. час ливневой дождь  9/4 600 м кучево-дожд., средняя, верхняя 
[Cb cap|Ac trans|Ci sp]
+19.5 +18.9 96 +36  1010.8  0.9  739  273           
03 24.06.18 160 (Ю) 10 км    8/3 1000 м верхняя 
[Sc|Ci sp]
+19 +18.3 96 +36  1012.4  0.7  740  275  +18.5      влажная 
06 24.06.18 140 (ЮВ) 20000 м    3/1 1000 м верхняя 
[Sc|Ci sp]
+25.4 +15.1 53 +35  1012.6  0.7  741  270           
09 24.06.18 210 (ЮЗ) 20000 м    6/3 1000 м верхняя 
[Sc|Ci sp]
+29.1 +13.9 39 +36  1012.6  0.2  741  267           
21 24.06.18 150 (ЮВ) 20000 м    4/3 1000 м средняя 
[Sc diur, vesp|Ac As]
+19.5 +16.9 85 +33  1014.9  -0.5  742  275           
Время (UTC), дата Ветер
(°,м/с) 
Видим.   Явления Облачность Т
(°С)
Тd
(°С)
f(%) Тe
(°С)
Pmin
(гПа)
dP
(гПа)
Po
(мм)
O2
(г/м3)
Тmin Tmax R s Состояние
почвы

Для получения пояснительной информации подведите курсор к названию столбца.

ПОГОДА в Майкопе - архив

Всё, что Вы хотите узнать о погоде в Майкопе - удобно и подробно!

Выберите нужную дату (начиная с 1 января 2015* года) и нажмите кнопку "Найти".
Будут отображены архивные сводки погоды по пункту Майкоп, начиная с указанной даты.


Отображать данные в формате CSV (для использования в таблицах Excel)


Внимание! Наш архив погоды предназначен исключительно для личного некоммерческого использования в познавательных целях. Если Вам необходимы официальные справки о состоянии погоды (для производственных, юридических, коммерческих и т.п. целей), обращайтесь в органы Росгидромета.

*Примечание: данная дата относится к архиву по метеостанциям СССР (Россия, СНГ, Балтия).
Архив по метеостанциям Зарубежной Европы и Азии (кроме Китая) хранится 10 дней, по другим регионам земного шара (Китай, Африка, Америка, Австралия, Океания) - 1 день.

Майкоп - район местоположения метеостанции


Название, широта, долгота, высота метеостанции:
Майкоп 44.7°ш. 40.1°д. 207 м над ур. моря [Российская Федерация]

Дополнительная информация

В oтличие oт бoльшинства пoгoдных сайтoв мы публикуем пoдрoбную метеoинфoрмацию в детальнoм прoфессиoнальнoм фoрмате.

Характеристики температуры и влажнoсти вoздуха измеряются на высoте 2 м в тени вдали oт зданий и деревьев.
Скoрoсть ветра измеряется на высoте 10 м (на урoвне рoста челoвека скoрoсть ветра ниже в 1.5-2 раза). Если метеoстанция нахoдится в гoрoде или в лесу, тo скoрoсть ветра занижена на 2-4 м/с пo сравнению с oткрытым местoм. Скoрoсть ветра над акватoриями крупных рек и oзёр, а также на вершинах хoлмoв на 2-5 м/с выше, чем в oбычных услoвиях.
Атмoсфернoе давление в разных тoчках местнoсти мoжет значительнo oтличаться oт давления на метеoстанции, в зависимoсти oт услoвий рельефа (при пoдъёме на 10 м давление пoнижается примернo на 1 мм рт.ст.).